User: anonymous   Login
Location: Oshawa
(43.9000°N, 78.8670°W)
Time: 02:43:18
(UTC-04:00)
Language:

Cosmos 1805 Rocket - Orbit

View from above orbital plane
View from above orbital plane
View from above satellite
View from above satellite

Ground track
Ground track

The orbit data is extracted from the following two-line orbital elements,

1 17192U 86097B   18116.67603885  .00000091  00000-0  81046-5 0  9994
2 17192  82.5047 322.2768 0017805 143.9339 282.0438 14.83543091695152
Epoch (UTC): 26 April 2018 16:13:29
Eccentricity: 0.0017805
inclination: 82.5047°
perigee height: 606 km
apogee height: 630 km
right ascension of ascending node: 322.2768°
argument of perigee: 143.9339°
revolutions per day: 14.83543091
mean anomaly at epoch: 282.0438°
orbit number at epoch: 69515

The dashed part of the orbit path shows where the satellite is in the earth's shadow,  

DLR